Regional Weather Roundup
Issued by NWS Upton, NY

Current Version | Previous Version | Graphics & Text | Print | Product List | Glossary Off
Versions: 1 2 3 4 5 6 7 8 9 10 11 12 13 14 15 16 17 18 19 20 21 22 23 24 25 26 27 28 29 30 31 32 33 34 35 36 37 38 39 40 41 42 43 44 45 46 47 48 49 50
000 ASUS41 KOKX 221408 RWROKX REGIONAL WEATHER ROUNDUP NATIONAL WEATHER SERVICE NEW YORK NY 1000 AM EDT TUE AUG 22 2017 NOTE: "FAIR" INDICATES FEW OR NO CLOUDS BELOW 12,000 FEET WITH NO SIGNIFICANT WEATHER AND/OR OBSTRUCTIONS TO VISIBILITY. NYZ071-072-176-178-NJZ106-104-221500- NEW YORK CITY METRO AREA CITY SKY/WX TMP DP RH WIND PRES REMARKS Central Park PTSUNNY 79 73 82 SW5 30.03F Bronx Bot Gard N/A 81 70 69 SW7 30.01F LaGuardia APRT PTSUNNY 80 73 79 S10 29.99F Kennedy INTL CLOUDY 77 76 96 SW12 30.02F Breezy Point N/A 73 N/A N/A SW6 N/A Newark/Liberty CLOUDY 79 73 82 SW13G24 30.00F Teterboro MOSUNNY 81 73 76 SW10 29.98F $$ NYZ177-179-078>081-221500- LONG ISLAND NEW YORK CITY SKY/WX TMP DP RH WIND PRES REMARKS Jones Beach N/A 75 N/A N/A SW6 N/A Matinecock PT N/A 77 N/A N/A SW12 N/A Farmingdale CLOUDY 78 73 84 SW10 30.02S MacArthur/ISP CLOUDY 79 74 84 SW14 30.01S Shirley CLOUDY 78 75 90 SW9 30.02F Mt Sinai Harb N/A 81 N/A N/A S7 N/A Westhampton CLOUDY 79 72 79 SW12 30.03F East Hampton CLOUDY 76 73 90 SW8 30.02S Montauk N/A 78 74 87 SW9 30.03S $$ NYZ052-065-067-221500- HUDSON VALLEY CITY SKY/WX TMP DP RH WIND PRES REMARKS White Plains MOSUNNY 80 72 76 SW5 30.00F Larchmont Harb N/A 75 N/A N/A S9 N/A Croton On Huds N/A 79 N/A N/A SE6 N/A Newburgh SUNNY 79 73 83 W7 30.00F Montgomery MOSUNNY 79 71 76 SW12 29.98F Poughkeepsie MOSUNNY 79 70 74 S8 29.97F Albany MOSUNNY 75 68 78 S12 29.95S $$ NJZ001-105-106-008-010-013-015-019>022-104-221500- NEW JERSEY CITY SKY/WX TMP DP RH WIND PRES REMARKS Newark/Liberty CLOUDY 79 73 82 SW13G24 30.00F Teterboro MOSUNNY 81 73 76 SW10 29.98F Caldwell PTSUNNY 77 73 87 VRB7G17 30.00F Somerville CLOUDY 77 74 90 VRB3 30.00F FOG Linden CLOUDY 78 72 82 W6 30.01F Perth Amboy N/A 77 N/A N/A W10 N/A Sussex MOSUNNY 77 72 84 VRB3 30.00F Andover N/A 78 71 79 SW8 30.01F Trenton CLOUDY 80 75 84 SW7 30.01F Millville MOSUNNY 84 77 79 SW8 30.04S HX 94 Atlantic City MOSUNNY 84 75 74 SW12 30.03F HX 92 Wrightstown CLOUDY 79 75 89 SW7 29.99F Toms River CLOUDY 82 75 79 W10 30.03F Belmar CLOUDY 80 74 81 SW10 30.03F $$ PAZ047>061-062-071-221500- EASTERN PENNSYLVANIA CITY SKY/WX TMP DP RH WIND PRES REMARKS Philadelphia CLOUDY 80 73 79 SW10 30.02F Allentown MOSUNNY 79 71 76 CALM 30.01F Scranton SUNNY 79 70 74 SW5 30.00F $$ CTZ002-004>006-009-010-012-RIZ004-006-007-MAZ004-011-015-221500- SOUTHERN NEW ENGLAND IN CT CITY SKY/WX TMP DP RH WIND PRES REMARKS Bradley INTL PTSUNNY 79 71 76 VRB7 29.98F Hartford PTSUNNY 80 72 76 SW7 29.98F Danbury MOSUNNY 80 72 76 SW10 30.01F Wtrbury/Oxford CLOUDY 74 71 91 SW5 30.02F FOG Norwalk Harbor N/A 75 N/A N/A SW7 N/A Bridgeport PTSUNNY 79 72 79 SW9 30.00F Meriden CLOUDY 78 71 79 S12 29.99F New Haven PTSUNNY 78 72 81 S6 30.00F FOG Chester N/A 77 73 88 S7 30.02S Groton PTSUNNY 76 72 87 S6 30.00F FOG Wilimantic CLOUDY 78 72 81 S8 30.00F IN RI CITY SKY/WX TMP DP RH WIND PRES REMARKS Providence PTSUNNY 79 73 82 SW9 30.00F Block Island CLOUDY 75 72 90 SW15G22 30.03F Westerly CLOUDY 78 73 84 SW8 30.02F IN MA CITY SKY/WX TMP DP RH WIND PRES REMARKS Boston MOSUNNY 79 71 76 SW14 29.98F Worcester CLOUDY 72 67 84 SW10 30.01F Westfield PTSUNNY 76 71 85 VRB5 29.97F Provincetown CLOUDY 75 71 87 S12 30.01F Nantucket CLOUDY 72 71 97 S12 30.04F $$ ANZ330-335-338-340-345-350-353-355-221500- COASTAL MARINE OBSERVATIONS STATION/POSITION TIME SKY/WX TEMP WIND PRES VSBY WAVE AIR SEA DIR/SP/G HT/PER (UTC) (F) (DEG/KT/KT) (MB) (MI) (FT/S) NY HARB ENTRANCE 1250 76 76 220/ 12/ 16 1016.1 3/ 5 GREAT SOUTH BAY 1330 76 78 230/ 10/ 14 N/A 23 SSW MONTAUK P 1250 74 72 1017.3 3/10 15 E BARNEGAT LI 1330 77 N/A 3/ 5 HUDSON CANYON 1250 76 75 210/ 12/ 14 1017.2 3/ 5 KINGS POINT 1330 77 74 240/ 7/ 8 1015.9 EXECUTION ROCKS NOT AVBL WESTERN LI SOUND NOT AVBL CENTRAL LI SOUND NOT AVBL EASTERN LI SOUND NOT AVBL ROBBINS REEF 1342 250/ 12/ 14 1016.8 $$ >>>>>>>>>>>>>>>>>>>>>>>>>>>> KEY <<<<<<<<<<<<<<<<<<<<<<<<<<< > < > SKY/WX - Sky Condition/Present Weather < > TMP - Temperature in Fahrenheit < > DP - Dew Point in Fahrenheit < > RH - Relative Humidity in Percent < > WIND - Direction (from) and Speed in MPH < > PRES - Mean Sea Level Pressure (inches of Hg) < > WCI - Wind Chill Index < > VSB - VISIBILITY IN MILES < > HX - HEAT INDEX < > TC - TEMPERATURE IN CELSIUS < > VRB - VARIABLE WIND DIRECTION < > < >>>>>>>>>>>>>>>>>>>>>>>>>>>> KEY <<<<<<<<<<<<<<<<<<<<<<<<<<<

USA.gov is the U.S. government's official web portal to all federal, state and local government web resources and services.